Regional Weather Roundup
Issued by NWS

Home | Current Version | Previous Version | Text Only | Print | Product List | Glossary Off
Versions: 1 2 3 4 5 6 7 8 9 10 11 12 13 14 15 16 17 18 19 20 21 22 23 24 25 26 27 28 29 30 31 32 33 34 35 36 37 38 39 40 41 42 43 44 45 46 47 48 49 50

000
ASUS43 KFSD 240610
RWRSD

WEATHER ROUNDUP FOR SOUTH DAKOTA
NATIONAL WEATHER SERVICE SIOUX FALLS SD
100 AM CDT TUE MAY 24 2016

NOTE: "FAIR" INDICATES FEW OR NO CLOUDS BELOW 12,000 FEET WITH NO
SIGNIFICANT WEATHER AND/OR OBSTRUCTIONS TO VISIBILITY.


SDZ001>005-009-010-012>017-240700-
NORTHWEST AND NORTH CENTRAL SOUTH DAKOTA

CITY           SKY/WX    TMP DP  RH WIND       PRES   REMARKS
BUFFALO          N/A     53  35  50 N13       29.76R
FAITH            N/A     52  40  63 NE9       29.77R
MOBRIDGE       CLOUDY    59  45  59 N10       29.73F
$$

SDZ012>016-024>037-041>051-057-063-072>074-240700-
SOUTHWEST AND SOUTH CENTRAL SOUTH DAKOTA

CITY           SKY/WX    TMP DP  RH WIND       PRES   REMARKS
RAPID CTY ARPT CLOUDY    59  33  37 N14       29.82R
PIERRE         CLOUDY    61  44  53 SW6       29.74R
CUSTER         CLEAR     51  22  31 SW7       29.91R
ELLSWORTH AFB  PTCLDY    57  35  43 NW18      29.81R
PHILIP         CLEAR     59  40  49 SW12      29.76S
PINE RIDGE     PTCLDY    51  37  58 S7        29.85F
WINNER         FAIR      62  46  55 N3        29.75F
$$

SDZ004>011-016>023-039-040-240700-
NORTHEAST SOUTH DAKOTA

CITY           SKY/WX    TMP DP  RH WIND       PRES   REMARKS
ABERDEEN       PTCLDY    56  51  84 SE3       29.74R
WATERTOWN      CLEAR     60  54  80 S6        29.77R
BROOKINGS      CLOUDY    62  60  93 S9        29.78R
SISSETON         N/A     60  52  74 SW6       29.72S
$$

SDZ017-020-022-023-036>040-048>070-240700-
SOUTHEAST SOUTH DAKOTA

CITY           SKY/WX    TMP DP  RH WIND       PRES   REMARKS
SIOUX FALLS    CLOUDY    64  62  93 S8        29.78S
HURON          CLEAR     62  58  86 S8        29.74R
CHAMBERLAIN    CLOUDY    60  55  83 CALM      29.76S
MITCHELL       CLEAR     64  61  90 SE8       29.75S
YANKTON        CLEAR     64  61  88 CALM      29.76F
$$

ABBREVIATIONS USED IN REMARKS
   TC - TEMPERATURE IN CELSIUS
  WCI - WIND CHILL INDEX
   HX - HEAT INDEX
  VSB - VISIBILITY




USA.gov is the U.S. government's official web portal to all federal, state and local government web resources and services.